Lakenheath RAF, United Kingdom

7:11 PM BST on May 24, 2018 (GMT +0100)
Lakenheath Air Base

Weather History for EGUL - June, 2014

Change the Weather History Date:

Wednesday, June 18, 2014

  Actual Average Record
Temperature  
Mean Temperature 56 °F -  
Max Temperature 63 °F - - ()
Min Temperature 48 °F - - ()
Degree Days  
Heating Degree Days 9    
Growing Degree Days 6 (Base 50)    
Moisture  
Dew Point 57 °F    
Average Humidity 93    
Maximum Humidity 100    
Minimum Humidity 72    
Precipitation  
Precipitation 0.00 in - - ()
Sea Level Pressure  
Sea Level Pressure 30.31 in    
Wind  
Wind Speed 8 mph ()    
Max Wind Speed 17 mph    
Max Gust Speed 21 mph    
Visibility 5.9 miles    
Events      
T = Trace of Precipitation, MM = Missing Value Source: Averaged Metar Reports

Daily Weather History Graph

Daily Weather History Graph

Search for Another Location

Airport or City:

Astronomy

Jun. 18, 2014 Rise Set
Actual Time 4:34 AM BST 9:23 PM BST
Civil Twilight 3:44 AM BST 10:13 PM BST
Nautical Twilight 2:22 AM BST 11:35 PM BST
Astronomical Twilight Sun does not set Sun does not set
Moon 12:01 AM BST (6/18) 11:25 AM BST (6/18)
Length of Visible Light 18h 28m
Length of Day
16h 48m
Waning Gibbous, 65% of the Moon is Illuminated
Jun 18
Waning Gibbous
Jun 19
Last Quarter
Jun 27
New
Jul 5
First Quarter
Jul 12
Full

Hourly Weather History & Observations

Time (BST) Temp. Dew Point Humidity Pressure Visibility Wind Dir Wind Speed Gust Speed Precip Events Conditions
12:58 AM 55.9 °F 55.9 °F 100% 30.33 in 6.2 mi NNE 8.1 mph - N/A   Overcast
1:58 AM 56.5 °F 56.5 °F 100% 30.33 in 6.2 mi NNE 8.1 mph - N/A   Overcast
2:58 AM 56.5 °F 56.5 °F 100% 30.32 in 6.2 mi North 4.6 mph - N/A   Overcast
3:33 AM 57.2 °F 57.2 °F 100% 30.31 in 6.2 mi North 4.6 mph - N/A   Overcast
3:40 AM 55.4 °F 55.4 °F 100% 30.31 in 6.2 mi North 4.6 mph - N/A   Light Drizzle
3:44 AM 55.4 °F 55.4 °F 100% 30.31 in 6.2 mi NNE 4.6 mph - N/A   Light Drizzle
3:50 AM 55.4 °F 55.4 °F 100% 30.31 in 6.2 mi North 5.8 mph - N/A   Overcast
3:58 AM 56.1 °F 56.1 °F 100% 30.32 in 6.2 mi North 5.8 mph - 0.00 in   Overcast
4:04 AM 55.4 °F 55.4 °F 100% 30.31 in 6.2 mi North 5.8 mph - N/A   Overcast
4:38 AM 55.4 °F 55.4 °F 100% 30.31 in 3.7 mi North 5.8 mph - N/A   Overcast
4:44 AM 55.4 °F 55.4 °F 100% 30.31 in 3.7 mi North 4.6 mph - N/A   Light Drizzle
4:51 AM 55.4 °F 55.4 °F 100% 30.31 in 5.0 mi North 4.6 mph - N/A   Light Drizzle
4:58 AM 56.1 °F 56.1 °F 100% 30.32 in 5.0 mi North 4.6 mph - 0.00 in   Light Drizzle
5:02 AM 55.4 °F 55.4 °F 100% 30.31 in 5.0 mi NNW 5.8 mph - N/A   Overcast
5:05 AM 55.4 °F 55.4 °F 100% 30.31 in 5.0 mi North 5.8 mph - N/A   Light Drizzle
5:11 AM 55.4 °F 55.4 °F 100% 30.31 in 5.6 mi NNW 5.8 mph - N/A   Light Drizzle
5:13 AM 55.4 °F 55.4 °F 100% 30.31 in 5.6 mi NNW 4.6 mph - N/A   Light Drizzle
5:22 AM 55.4 °F 55.4 °F 100% 30.31 in 6.2 mi NNW 6.9 mph - N/A   Light Drizzle
5:25 AM 55.4 °F 55.4 °F 100% 30.31 in 6.2 mi NNW 5.8 mph - N/A   Light Drizzle
5:27 AM 55.4 °F 55.4 °F 100% 30.31 in 6.2 mi North 5.8 mph - N/A   Overcast
5:35 AM 57.2 °F 57.2 °F 100% 30.31 in 6.2 mi North 8.1 mph - N/A   Overcast
5:58 AM 56.7 °F 56.7 °F 100% 30.32 in 6.2 mi North 8.1 mph - 0.00 in   Overcast
6:07 AM 57.2 °F 57.2 °F 100% 30.31 in 6.2 mi North 8.1 mph - N/A   Overcast
6:09 AM 57.2 °F 57.2 °F 100% 30.31 in 6.2 mi North 8.1 mph - N/A   Overcast
6:19 AM 57.2 °F 57.2 °F 100% 30.31 in 6.2 mi North 6.9 mph - N/A   Overcast
6:20 AM 57.2 °F 57.2 °F 100% 30.31 in 6.2 mi North 6.9 mph - N/A   Overcast
6:23 AM 57.2 °F 57.2 °F 100% 30.31 in 6.2 mi North 6.9 mph - N/A   Overcast
6:29 AM 57.2 °F 57.2 °F 100% 30.31 in 6.2 mi North 6.9 mph - N/A   Overcast
7:43 AM 57.2 °F 57.2 °F 100% 30.32 in 5.6 mi North 6.9 mph - N/A   Overcast
7:51 AM 59.0 °F 59.0 °F 100% 30.31 in 6.2 mi North 5.8 mph - N/A   Overcast
7:53 AM 57.2 °F 57.2 °F 100% 30.32 in 2.5 mi North 6.9 mph - N/A   Light Drizzle
7:54 AM 57.2 °F 57.2 °F 100% 30.31 in 6.2 mi North 6.9 mph - N/A   Overcast
7:57 AM 57.2 °F 57.2 °F 100% 30.31 in - North 8.1 mph - N/A   Light Drizzle
7:58 AM 57.2 °F 57.2 °F 100% 30.32 in - NNW 9.2 mph - N/A   Light Drizzle
8:04 AM 59.0 °F 59.0 °F 100% 30.32 in 2.5 mi North 5.8 mph - N/A   Light Drizzle
8:07 AM 59.0 °F 59.0 °F 100% 30.32 in 5.0 mi North 6.9 mph - N/A   Light Drizzle
8:09 AM 59.0 °F 59.0 °F 100% 30.31 in 2.5 mi North 6.9 mph - N/A   Light Drizzle
8:10 AM 59.0 °F 59.0 °F 100% 30.32 in 5.0 mi North 5.8 mph - N/A   Light Drizzle
8:19 AM 59.0 °F 59.0 °F 100% 30.31 in 2.5 mi North 6.9 mph - N/A   Light Drizzle
8:20 AM 59.0 °F 59.0 °F 100% 30.31 in 5.6 mi North 6.9 mph - N/A   Light Drizzle
8:26 AM 59.0 °F 59.0 °F 100% 30.31 in 5.6 mi North 9.2 mph - N/A   Light Drizzle
8:56 AM 59.0 °F 59.0 °F 100% 30.32 in 6.2 mi NNE 13.8 mph - N/A   Light Drizzle
8:58 AM 59.4 °F 59.4 °F 100% 30.33 in 6.2 mi NNE 12.7 mph - 0.00 in   Light Drizzle
9:06 AM 59.0 °F 59.0 °F 100% 30.32 in 6.2 mi North 11.5 mph - N/A   Overcast
9:19 AM 59.0 °F 59.0 °F 100% 30.32 in 6.2 mi North 13.8 mph - N/A   Overcast
9:21 AM 59.0 °F 59.0 °F 100% 30.32 in 6.2 mi NNE 11.5 mph - N/A   Overcast
9:22 AM 60.8 °F 60.8 °F 100% 30.32 in 6.2 mi North 11.5 mph - N/A   Overcast
9:29 AM 59.0 °F 59.0 °F 100% 30.32 in 6.2 mi North 12.7 mph - N/A   Overcast
9:58 AM 59.5 °F 59.5 °F 100% 30.33 in 6.2 mi North 12.7 mph - 0.00 in   Overcast
10:01 AM 59.0 °F 59.0 °F 100% 30.32 in 6.2 mi NNE 10.4 mph - N/A   Overcast
10:14 AM 60.8 °F 60.8 °F 100% 30.32 in 6.2 mi North 9.2 mph - N/A   Overcast
10:19 AM 60.8 °F 60.8 °F 100% 30.32 in 6.2 mi North 10.4 mph - N/A   Overcast
10:31 AM 60.8 °F 60.8 °F 100% 30.32 in 6.2 mi North 15.0 mph - N/A   Overcast
10:32 AM 60.8 °F 60.8 °F 100% 30.32 in 6.2 mi North 13.8 mph - N/A   Overcast
10:37 AM 60.8 °F 60.8 °F 100% 30.32 in 6.2 mi North 13.8 mph - N/A   Overcast
10:38 AM 60.8 °F 60.8 °F 100% 30.32 in 6.2 mi North 12.7 mph - N/A   Overcast
10:44 AM 60.8 °F 60.8 °F 100% 30.32 in 6.2 mi North 15.0 mph - N/A   Overcast
10:46 AM 60.8 °F 60.8 °F 100% 30.32 in 6.2 mi North 15.0 mph - N/A   Overcast
10:47 AM 60.8 °F 60.8 °F 100% 30.32 in 6.2 mi North 15.0 mph - N/A   Overcast
10:53 AM 60.8 °F 60.8 °F 100% 30.32 in 6.2 mi North 15.0 mph - N/A   Overcast
10:56 AM 60.8 °F 60.8 °F 100% 30.32 in 6.2 mi North 15.0 mph - N/A   Light Drizzle
10:57 AM 60.8 °F 60.8 °F 100% 30.32 in 6.2 mi North 15.0 mph - N/A   Light Drizzle
10:58 AM 60.8 °F 60.8 °F 100% 30.33 in 6.2 mi North 13.8 mph - N/A   Light Drizzle
10:59 AM 60.8 °F 60.8 °F 100% 30.32 in 6.2 mi North 15.0 mph - N/A   Light Drizzle
11:00 AM 60.8 °F 60.8 °F 100% 30.32 in 6.2 mi North 16.1 mph - N/A   Light Drizzle
11:03 AM 60.8 °F 60.8 °F 100% 30.32 in 6.2 mi North 16.1 mph - N/A   Light Drizzle
11:08 AM 60.8 °F 59.0 °F 94% 30.32 in 6.2 mi North 13.8 mph - N/A   Light Drizzle
11:10 AM 60.8 °F 59.0 °F 94% 30.32 in 6.2 mi North 13.8 mph - N/A   Light Drizzle
11:14 AM 60.8 °F 59.0 °F 94% 30.32 in 6.2 mi North 12.7 mph - N/A   Overcast
11:49 AM 62.6 °F 55.4 °F 77% 30.32 in 6.2 mi North 10.4 mph 20.7 mph N/A   Overcast
11:58 AM 61.7 °F 56.8 °F 84% 30.33 in 6.2 mi North 16.1 mph - 0.00 in   Overcast
12:03 PM 60.8 °F 57.2 °F 88% 30.32 in 6.2 mi North 16.1 mph - N/A   Overcast
12:11 PM 60.8 °F 55.4 °F 82% 30.32 in 6.2 mi North 12.7 mph - N/A   Overcast
12:15 PM 60.8 °F 55.4 °F 82% 30.32 in 6.2 mi North 10.4 mph - N/A   Light Drizzle
12:26 PM 62.6 °F 55.4 °F 77% 30.31 in 6.2 mi North 13.8 mph - N/A   Overcast
12:28 PM 60.8 °F 55.4 °F 82% 30.32 in 6.2 mi North 12.7 mph - N/A   Overcast
12:37 PM 60.8 °F 57.2 °F 88% 30.32 in 6.2 mi North 13.8 mph - N/A   Overcast
12:40 PM 60.8 °F 57.2 °F 88% 30.32 in 6.2 mi North 12.7 mph - N/A   Overcast
12:52 PM 60.8 °F 57.2 °F 88% 30.31 in 6.2 mi North 11.5 mph - N/A   Overcast
12:53 PM 60.8 °F 57.2 °F 88% 30.31 in 6.2 mi North 11.5 mph - N/A   Overcast
12:57 PM 60.8 °F 57.2 °F 88% 30.31 in 6.2 mi NNW 11.5 mph - N/A   Overcast
12:58 PM 60.8 °F 57.2 °F 88% 30.32 in 6.2 mi NNW 11.5 mph - 0.00 in   Overcast
1:40 PM 62.6 °F 55.4 °F 77% 30.31 in 6.2 mi North 17.3 mph - N/A   Overcast
1:57 PM 60.8 °F 55.4 °F 82% 30.31 in 6.2 mi North 12.7 mph - N/A   Overcast
1:58 PM 60.8 °F 55.4 °F 82% 30.32 in 6.2 mi North 12.7 mph - N/A   Overcast
1:59 PM 60.8 °F 55.4 °F 82% 30.31 in 6.2 mi North 13.8 mph - N/A   Overcast
2:00 PM 60.8 °F 55.4 °F 82% 30.31 in 6.2 mi North 13.8 mph - N/A   Overcast
2:01 PM 60.8 °F 55.4 °F 82% 30.31 in 6.2 mi North 13.8 mph - N/A   Overcast
2:58 PM 62.6 °F 55.8 °F 78% 30.31 in 6.2 mi North 10.4 mph - N/A   Overcast
3:04 PM 60.8 °F 55.4 °F 82% 30.30 in 6.2 mi NNE 12.7 mph - N/A   Overcast
3:14 PM 60.8 °F 55.4 °F 82% 30.30 in 6.2 mi North 11.5 mph - N/A   Overcast
3:17 PM 60.8 °F 55.4 °F 82% 30.30 in 6.2 mi North 9.2 mph - N/A   Overcast
3:18 PM 60.8 °F 55.4 °F 82% 30.30 in 6.2 mi North 10.4 mph - N/A   Overcast
3:39 PM 62.6 °F 55.4 °F 77% 30.30 in 6.2 mi NNE 10.4 mph - N/A   Overcast
3:43 PM 62.6 °F 55.4 °F 77% 30.29 in 6.2 mi North 10.4 mph - N/A   Overcast
3:45 PM 62.6 °F 55.4 °F 77% 30.29 in 6.2 mi North 11.5 mph - N/A   Overcast
3:53 PM 62.6 °F 55.4 °F 77% 30.29 in 6.2 mi NNE 13.8 mph - N/A   Overcast
3:55 PM 62.6 °F 55.4 °F 77% 30.29 in 6.2 mi North 10.4 mph - N/A   Overcast
3:58 PM 62.1 °F 55.2 °F 78% 30.30 in 6.2 mi NNE 11.5 mph - N/A   Overcast
4:28 PM 62.6 °F 53.6 °F 72% 30.28 in 6.2 mi NNE 16.1 mph - N/A   Mostly Cloudy
4:58 PM 62.2 °F 54.9 °F 77% 30.29 in 6.2 mi North 10.4 mph - N/A   Overcast
5:36 PM 62.6 °F 55.4 °F 77% 30.27 in 6.2 mi NE 11.5 mph - N/A   Scattered Clouds
5:40 PM 62.6 °F 55.4 °F 77% 30.27 in 6.2 mi NNE 12.7 mph 17.3 mph N/A   Mostly Cloudy
5:58 PM 62.1 °F 54.9 °F 77% 30.27 in 6.2 mi NNE 9.2 mph - N/A   Mostly Cloudy
6:03 PM 62.6 °F 55.4 °F 77% 30.26 in 6.2 mi NNE 12.7 mph - N/A   Light Drizzle
6:07 PM 62.6 °F 55.4 °F 77% 30.26 in 6.2 mi NNE 10.4 mph - N/A   Light Drizzle
6:13 PM 62.6 °F 55.4 °F 77% 30.26 in 6.2 mi NE 10.4 mph - N/A   Scattered Clouds
6:58 PM 61.3 °F 54.7 °F 79% 30.26 in 6.2 mi NE 10.4 mph - 0.00 in   Clear
7:58 PM 59.7 °F 54.3 °F 82% 30.27 in 6.2 mi NE 8.1 mph - N/A   Clear
8:58 PM 57.0 °F 54.7 °F 92% 30.26 in 6.2 mi NE 6.9 mph - N/A   Clear
9:58 PM 54.5 °F 54.5 °F 100% 30.26 in 6.2 mi NE 2.3 mph - N/A   Clear
10:58 PM 50.2 °F 50.2 °F 100% 30.25 in 6.2 mi South 1.2 mph - N/A   Clear
11:58 PM 48.0 °F 48.0 °F 100% 30.25 in 6.2 mi Calm Calm - N/A   Clear